FENGYUN 2H (43491 NORAD) Tracking and Keplerian Element Data

This shows tracking and keplerian element data for the satellite.

Feedback or suggestion? Click here.




ElementValue
Catalog43491
NameFENGYUN 2H
Epoch Orbit171
Epoch Day317.90344917
Epoch Year2018
RAAN284.6051
Inclination2.0001
Eccentricity0.0003561
Argument of Perigee262.51
Mean Anonmoly269.9953
Mean Motion1.00274373
Decay Rate-1.27E-06
L11 43491U 18050A 18317.90344917 -.00000127 00000-0 00000+0 0 9992
L22 43491 2.0001 284.6051 0003561 262.5100 269.9953 1.00274373 1712

Live tracking and technical data element details for FENGYUN 2H (NORAD 43491). FENGYUN 2H can be tracked NOW for your location showing map with azimuth and elevation plus other details from your city location.

Track the satellite on the map from your city or location and see movement details for azimuth, elevation, latitude, longitude, range, height, and movement on the map or in text.







IsCatalogInMostPopularTable: catalog: 43491, numindb: 40
Update: records affected: 1



GetName: 43491 FENGYUN 2H

Hit Count: updated at: Thu, 15 Nov 2018 04:40:56 GMT